Theta_e
321 316 315 314 317 317 317 312 296 305 300 293 295 300 298 307 307 305 305 305 303 307 305 304 304 302 302 304 309 316 317 312 314 308 310 326 338 339 341 342 343 343 343 344 344 347 350 350 351 353 353 353 353 353 351 350 351 350 351 352 351 350 350 350 350 349 348 348 347 346 346 345 343 343 342 342 342 341 339 339 339 340 339 339 338 339 339 339 338 337 337 336 336 338 338 337 337
317 314 314 317 317 316 306 308 298 299 298 294 297 301 300 304 305 304 305 305 305 305 304 304 305 305 304 304 305 312 314 322 324 324 328 334 337 339 341 342 343 342 343 344 345 346 347 348 351 352 354 353 353 353 352 351 351 350 351 351 351 351 350 350 349 349 348 347 347 346 346 345 343 342 341 340 340 338 338 339 340 339 339 339 339 339 339 338 336 335 337 337 338 338 337 337 338
313 314 312 313 313 311 309 306 294 295 293 291 296 300 305 302 302 305 307 305 303 303 303 304 306 307 309 308 307 307 309 323 326 327 327 336 332 336 340 342 342 342 342 344 345 346 347 347 350 351 353 353 353 353 352 352 351 351 350 350 350 350 350 349 349 348 348 347 347 346 345 344 343 341 340 339 337 337 337 339 340 339 339 339 339 339 337 336 337 337 338 338 337 338 337 337 338
311 314 313 312 304 311 301 301 296 295 292 294 296 301 301 301 303 306 305 302 302 303 303 304 306 313 311 308 316 316 319 322 326 327 328 330 331 335 339 341 343 342 343 344 345 347 348 348 349 351 351 353 353 352 353 352 351 351 350 350 350 349 349 348 347 347 346 347 346 346 345 344 342 340 339 339 338 338 338 339 340 339 341 342 340 338 336 336 336 339 339 338 337 338 337 340 342
311 314 314 310 306 299 302 299 297 296 291 296 294 301 301 302 304 303 301 301 302 302 303 302 305 313 320 321 319 313 321 326 326 330 330 333 336 338 340 342 342 342 342 344 345 348 349 348 349 350 351 353 353 353 351 351 351 351 350 350 350 349 348 348 348 348 348 348 346 346 345 344 343 341 339 339 340 339 338 338 339 341 342 341 339 337 336 336 338 339 339 337 339 341 342 342 342
311 310 311 310 301 306 301 294 293 293 296 298 296 299 300 303 304 302 300 301 301 302 301 301 302 304 307 315 321 320 326 322 327 329 330 332 335 340 340 342 342 341 342 345 346 348 349 348 348 349 351 354 353 352 352 351 351 351 350 350 349 349 349 349 349 348 348 348 346 346 345 344 344 341 340 340 340 339 339 337 338 341 342 342 339 336 336 337 340 340 339 338 342 342 342 341 341
309 307 306 305 302 303 295 293 292 294 296 298 297 299 300 303 302 301 299 299 300 301 300 301 303 302 301 314 316 325 326 327 326 327 331 333 337 339 341 341 342 340 342 344 346 347 349 346 347 349 351 353 353 352 352 351 351 350 350 350 350 349 349 349 349 348 349 347 346 346 345 344 345 341 341 340 340 339 339 337 337 338 341 342 340 338 339 339 342 343 342 342 342 342 342 341 340
309 305 303 297 297 296 292 294 294 296 296 298 300 300 302 303 301 301 300 300 299 299 300 300 301 300 300 307 314 324 324 325 325 326 327 330 336 338 341 341 341 340 341 344 345 347 349 343 345 348 350 352 353 352 351 351 351 350 350 350 349 349 349 349 349 348 348 348 346 346 346 345 344 344 343 341 341 340 341 340 338 337 337 338 339 342 341 343 344 344 344 342 341 341 341 339 339
306 304 303 299 293 296 293 292 293 298 297 296 298 300 304 301 301 300 300 299 298 299 299 301 302 297 303 303 308 322 322 323 319 319 320 324 329 337 339 339 340 341 341 343 344 347 348 342 343 344 346 347 349 350 351 350 349 349 349 349 349 349 349 348 348 348 348 348 347 346 345 345 344 344 343 343 343 341 341 341 341 340 341 341 341 342 341 341 344 343 343 342 341 340 339 339 338
303 302 297 296 298 290 291 292 291 294 295 297 298 299 301 302 299 299 300 298 299 299 300 301 300 298 302 302 306 318 321 321 316 314 317 319 322 329 336 338 339 342 342 342 343 345 346 348 341 342 344 344 345 348 349 349 348 347 347 349 349 349 348 348 348 348 348 347 346 346 345 345 345 343 343 343 343 343 342 342 341 344 345 345 343 341 340 340 343 343 342 341 340 339 339 338 338
297 300 302 294 291 289 290 291 293 294 293 294 295 298 299 301 301 299 299 299 299 299 299 298 297 298 299 300 303 322 323 322 317 312 316 316 321 321 324 330 336 339 342 344 345 344 346 347 346 340 341 341 342 344 346 347 347 347 347 348 348 349 348 348 348 348 347 346 346 345 345 345 343 343 343 342 341 342 342 342 343 345 344 345 343 341 340 341 342 342 341 341 340 339 338 339 339
296 296 297 291 291 291 291 291 293 295 293 293 294 297 298 299 299 297 298 296 298 297 298 298 297 301 297 299 301 317 322 320 319 313 316 317 314 318 320 320 323 328 340 344 345 345 345 345 347 345 336 336 338 340 342 342 342 344 346 346 347 348 348 348 347 347 347 346 346 345 345 344 343 343 342 340 339 340 340 341 342 344 344 343 342 341 341 342 342 342 341 340 339 338 338 339 340
297 300 294 291 291 293 293 292 292 294 294 294 295 296 298 298 296 298 298 299 298 297 298 301 301 300 296 298 310 316 316 320 314 315 317 315 313 315 318 317 318 318 327 339 342 343 346 345 345 345 338 332 334 336 338 338 342 339 338 344 346 347 347 347 346 346 346 346 345 345 344 343 342 342 342 340 339 339 340 339 339 343 343 342 341 342 342 342 341 340 340 340 338 338 338 339 340
297 299 297 291 294 292 291 291 293 290 292 295 296 296 297 296 297 299 299 296 297 296 300 302 300 300 298 300 303 312 314 315 312 318 315 315 315 313 315 317 318 316 321 323 328 333 336 338 340 342 343 343 341 334 334 335 336 338 337 336 338 344 345 345 345 345 344 344 344 343 342 342 342 342 341 339 338 338 338 337 337 342 343 342 342 342 341 341 340 340 339 339 338 337 338 340 341
296 299 296 293 291 291 292 289 291 291 291 296 295 295 294 298 298 298 297 296 298 300 299 301 301 298 296 297 299 309 315 315 315 318 318 312 313 311 313 314 315 316 316 319 322 320 322 324 326 331 332 337 341 342 337 333 331 334 335 335 336 337 339 342 342 342 342 342 341 341 341 341 341 341 340 339 338 337 337 336 336 338 342 342 342 341 340 341 341 340 339 338 337 337 338 339 340
301 297 295 290 288 289 291 289 291 290 291 295 294 295 296 296 298 297 298 299 298 297 299 297 300 298 300 299 301 308 317 312 312 315 312 311 310 311 309 310 310 312 315 316 321 322 321 321 321 321 323 324 327 331 336 335 328 329 331 333 334 334 336 336 337 338 339 338 338 338 339 341 341 341 339 340 337 336 336 336 335 336 340 342 342 340 339 341 341 340 339 338 337 338 339 339 339
300 301 290 288 287 289 291 290 291 288 294 293 292 294 294 295 297 298 298 298 297 297 296 300 298 300 298 301 304 312 308 309 307 310 310 308 307 307 307 307 308 309 312 312 319 320 323 321 320 320 320 321 323 324 325 330 331 325 328 330 331 331 333 334 333 333 334 334 335 335 337 342 342 340 343 341 337 340 334 332 334 334 336 340 340 339 339 340 341 340 338 337 337 338 338 339 337
299 291 290 288 289 289 292 291 293 295 293 293 292 294 295 294 295 297 297 296 297 298 296 299 300 299 301 301 303 304 304 306 306 306 308 307 307 304 305 306 306 305 309 309 311 317 322 319 322 320 321 320 323 325 327 328 327 324 328 330 330 333 333 333 336 341 340 342 332 339 342 340 340 339 341 338 341 340 336 331 332 332 334 337 339 338 338 340 340 339 338 337 338 338 336 339 337
294 292 291 288 291 293 295 294 296 293 294 295 295 295 295 296 296 296 294 295 295 294 296 298 298 299 301 302 301 301 304 304 305 306 306 307 305 305 305 308 307 307 306 307 309 311 318 318 320 319 320 320 322 323 326 324 325 325 325 326 331 330 335 338 341 339 341 341 342 342 340 340 339 339 340 340 340 333 336 329 331 331 332 334 336 337 337 338 339 338 338 338 338 335 339 338 338
296 293 288 289 295 294 293 294 297 295 296 294 294 294 293 296 295 297 293 295 295 294 295 296 296 297 300 302 303 304 306 305 307 306 306 307 307 307 307 308 307 307 307 307 308 312 312 316 319 319 319 320 320 319 322 321 323 324 324 324 323 327 333 337 340 342 342 342 343 343 340 339 339 339 337 336 334 340 338 328 329 329 329 331 333 336 335 336 336 336 336 336 336 335 334 335 337
296 292 289 292 293 292 293 293 294 294 294 295 294 293 291 294 295 295 294 293 295 295 298 298 297 298 301 303 304 305 306 305 306 307 305 307 309 309 308 308 307 308 308 308 308 311 310 312 315 318 320 320 320 319 320 320 322 322 325 325 326 324 329 333 337 341 342 343 343 343 342 341 339 338 341 340 341 340 339 339 337 337 336 338 331 336 335 339 338 338 337 335 334 333 333 335 336
295 291 294 292 290 291 293 293 294 293 292 293 292 291 293 295 293 293 294 292 294 300 299 300 301 302 304 306 304 306 304 304 304 305 305 306 307 308 308 307 308 308 309 306 306 309 311 313 315 315 318 319 319 319 319 320 322 321 323 326 327 326 326 328 333 339 340 341 342 343 342 342 341 338 339 340 340 339 338 338 336 335 333 334 336 334 333 337 337 336 335 334 333 334 332 334 335
290 294 294 293 292 292 292 291 291 293 293 293 292 295 294 293 295 294 294 294 297 300 303 300 301 302 304 304 303 301 304 304 305 305 306 307 308 308 308 308 307 307 307 306 308 309 312 313 315 316 315 316 318 319 320 320 320 322 325 327 328 328 329 329 328 331 337 339 341 342 341 341 341 341 338 340 339 339 337 337 336 335 332 332 334 333 332 336 336 335 335 333 332 332 332 333 335
294 292 292 292 292 291 292 292 291 291 293 294 296 291 292 294 291 297 293 295 298 299 299 305 307 303 300 299 300 302 302 305 306 306 307 307 307 308 309 309 308 308 307 307 308 309 310 311 314 315 313 315 317 319 320 319 321 323 325 327 327 326 328 329 330 332 333 336 340 340 340 341 340 340 338 339 338 338 336 336 336 334 333 332 333 333 331 332 333 334 334 333 332 331 331 333 335
292 291 294 292 290 292 293 291 290 289 291 292 291 292 293 295 294 295 293 296 298 299 301 301 303 302 301 301 300 300 303 303 304 305 307 305 306 307 309 307 306 306 305 306 307 308 310 312 314 314 314 315 315 317 319 319 319 322 324 325 324 325 327 327 328 333 335 334 335 338 336 338 341 339 337 338 338 336 337 336 335 334 333 332 333 332 332 331 332 333 332 332 331 330 330 332 333
294 293 293 293 293 292 292 292 290 290 292 291 290 291 294 295 297 291 294 296 300 301 300 301 301 300 300 301 302 300 301 301 303 303 303 305 304 304 304 304 304 303 304 305 307 308 310 310 312 311 313 313 315 317 317 317 319 321 323 324 324 325 324 325 328 327 331 335 335 337 337 337 338 338 337 337 337 337 337 335 334 334 333 332 332 331 333 332 331 332 331 330 330 329 329 331 332
290 293 293 292 293 293 295 292 293 292 291 291 290 292 294 294 292 291 299 298 300 301 300 301 300 298 300 301 302 302 301 301 302 303 303 304 303 302 303 305 303 303 305 305 306 307 308 310 310 311 312 314 315 316 317 318 320 320 320 322 323 323 322 323 325 326 327 331 335 337 337 338 337 338 337 336 336 337 336 336 334 334 333 333 333 332 333 333 332 331 330 329 328 327 329 331 331
290 288 291 291 293 292 293 291 292 291 292 291 291 292 293 291 293 290 299 297 297 300 299 299 297 296 297 300 301 302 302 302 301 302 302 303 302 302 303 303 304 304 304 305 306 307 308 309 309 309 310 312 313 315 317 318 319 320 322 321 321 322 324 322 321 322 322 325 332 337 337 337 336 338 338 336 335 336 335 336 335 334 332 333 333 331 332 333 331 330 330 329 329 328 329 330 330
290 290 288 291 291 291 293 291 293 292 292 291 292 290 289 288 288 294 299 300 298 298 298 298 297 297 298 299 301 300 300 301 301 300 301 303 305 306 304 306 306 305 306 306 307 307 307 308 308 308 310 311 313 313 315 318 319 321 321 321 320 324 322 321 320 321 321 322 326 331 336 337 337 336 337 337 333 335 335 334 334 333 334 333 333 332 333 333 331 330 329 329 328 329 329 329 329
291 291 289 289 290 289 292 294 291 290 292 292 292 285 291 291 292 297 299 299 298 297 296 297 298 299 299 299 299 299 300 300 300 301 301 303 304 305 304 306 305 305 304 305 305 305 306 308 309 309 309 311 312 313 315 317 319 321 321 321 322 323 320 320 321 321 321 321 322 325 330 333 336 336 336 336 335 335 335 334 332 333 333 334 333 333 331 330 329 328 327 327 324 327 328 326 325
288 290 289 286 286 286 287 289 290 289 293 291 293 285 289 298 298 301 298 297 296 294 295 296 298 299 299 299 299 299 301 302 301 302 304 305 305 304 304 305 305 304 303 304 304 304 305 307 309 310 311 311 312 313 316 318 320 320 320 321 321 322 321 320 319 320 320 321 320 321 323 324 327 333 336 336 335 334 333 332 332 331 333 333 332 332 331 329 329 327 326 325 326 325 325 323 324
290 286 285 287 285 289 285 288 289 289 291 292 292 285 288 292 296 296 295 295 295 294 296 296 296 297 299 299 299 299 300 303 303 304 306 306 305 303 303 303 304 304 304 303 304 305 305 306 308 308 309 309 311 313 316 318 319 320 320 320 320 322 319 319 319 319 320 320 320 321 322 323 324 327 331 333 332 332 332 332 332 332 332 332 331 331 329 328 327 326 325 325 323 322 322 321 322
288 285 286 284 286 286 288 286 288 288 291 290 291 288 292 292 293 294 295 296 295 294 295 296 297 298 298 299 300 300 300 302 302 303 304 304 305 304 304 304 305 304 304 303 303 304 304 305 306 307 308 310 312 314 316 318 319 319 319 320 320 320 319 318 318 319 320 320 320 320 321 322 323 324 328 332 331 329 330 330 333 332 331 331 330 330 327 328 326 324 324 324 324 320 320 319 317
285 287 283 287 284 286 284 286 286 289 290 288 290 287 290 293 294 294 294 294 294 293 294 296 298 298 298 298 299 299 300 301 302 303 304 304 304 305 305 304 304 304 303 303 303 303 304 305 307 307 309 311 313 314 316 317 317 318 318 318 318 318 319 319 320 321 320 320 321 320 321 321 320 323 326 327 329 330 330 329 330 331 331 330 329 328 327 326 325 323 322 323 323 320 319 317 314
283 283 282 283 284 284 285 287 287 287 288 287 289 287 288 291 294 295 297 297 295 294 294 296 296 297 298 299 299 299 299 300 301 303 307 306 304 305 305 303 302 302 302 302 302 303 304 305 307 307 308 311 312 314 315 316 317 318 318 318 318 318 318 319 320 321 322 322 321 320 320 320 319 322 323 324 326 330 330 329 329 329 329 328 328 326 325 324 323 323 322 321 322 321 318 318 314
286 285 284 284 283 284 284 288 285 287 286 286 286 286 289 291 292 294 295 297 295 295 295 295 295 296 297 297 298 298 299 300 302 304 304 303 303 303 303 302 302 302 303 303 302 303 304 305 306 307 308 310 311 313 314 313 314 314 314 316 316 317 318 318 320 321 322 322 322 321 320 320 319 320 323 324 324 326 328 327 327 328 327 327 326 324 323 322 322 321 320 320 318 316 318 312 308
284 286 286 284 284 286 286 286 287 286 285 286 287 287 288 289 291 293 294 295 294 294 293 293 294 295 296 297 297 298 299 299 304 304 302 301 303 303 302 301 300 300 301 302 302 303 303 304 306 306 308 311 311 310 311 312 312 313 315 315 313 315 315 318 319 320 321 321 321 321 320 318 319 319 320 321 321 322 327 327 326 326 327 326 324 323 323 323 323 322 320 319 317 313 310 308 307
286 285 283 283 284 283 287 286 285 288 285 286 286 286 286 288 290 291 293 292 291 292 293 293 294 295 296 297 297 298 299 302 303 300 300 301 301 302 301 299 299 298 299 300 301 302 303 305 305 306 308 309 310 311 311 313 314 313 312 313 313 313 313 314 314 317 319 320 320 319 318 317 317 317 317 319 318 319 321 323 323 324 325 325 324 324 324 321 321 320 317 315 315 310 306 305 305
285 283 284 283 284 285 285 284 285 287 285 285 286 285 285 288 290 292 292 292 293 294 294 294 294 295 295 296 297 297 298 299 299 299 299 298 300 301 299 299 299 300 302 301 301 302 303 304 305 306 308 309 310 312 312 312 314 316 315 314 314 312 315 316 317 318 319 318 318 318 318 318 317 317 318 318 318 318 318 318 319 319 322 322 322 322 322 321 320 317 315 312 308 309 307 306 307
284 283 282 281 284 282 281 283 286 285 286 286 284 283 285 287 290 291 293 293 293 296 297 296 296 295 295 296 297 297 297 298 298 297 297 297 298 299 298 299 300 300 301 301 302 301 302 302 304 306 307 308 310 311 312 314 315 316 316 316 316 316 314 317 316 316 316 317 316 317 318 318 318 318 318 317 318 319 319 318 319 317 318 321 322 320 319 318 318 315 314 311 309 305 305 305 310
284 284 283 282 281 282 282 283 284 283 285 281 283 283 285 288 288 289 292 294 293 295 295 293 293 294 295 296 297 297 296 296 297 297 297 297 297 296 297 299 301 300 300 300 302 302 304 303 304 306 307 307 310 311 312 313 312 312 313 314 314 314 314 313 313 313 315 315 315 316 316 318 318 317 317 317 317 318 320 319 320 320 320 320 322 320 319 319 316 316 314 311 309 307 304 306 308
283 285 284 285 284 282 282 283 283 283 283 284 285 280 282 287 284 287 290 285 287 291 290 291 292 293 293 293 294 295 296 297 296 296 297 297 296 297 298 300 299 300 300 302 303 303 303 303 305 306 307 308 309 310 311 312 311 310 310 309 308 308 308 310 310 311 313 314 314 316 316 317 317 316 317 317 317 317 319 319 321 322 321 321 321 320 320 319 316 315 314 312 310 310 308 306 307
281 282 286 285 284 282 282 283 282 279 278 283 285 280 279 288 287 286 287 285 287 293 289 292 294 295 293 293 294 295 296 296 296 296 296 296 297 298 298 299 299 300 301 303 303 303 304 305 306 306 306 307 309 309 310 310 310 311 311 310 308 307 306 309 314 315 315 316 317 316 315 316 316 316 316 318 317 317 317 319 320 322 320 320 319 319 318 317 316 315 313 312 311 310 310 307 307
281 282 282 285 284 282 281 282 282 281 284 284 282 283 280 281 286 288 287 286 286 288 292 294 295 295 294 294 295 295 297 297 296 295 295 296 297 298 298 299 299 300 302 302 303 303 303 304 305 306 307 308 309 309 309 310 310 310 310 310 310 309 310 310 315 316 317 317 316 316 314 315 316 316 316 317 317 317 317 319 320 322 320 319 318 318 316 317 317 315 314 313 312 311 310 309 307
282 280 284 284 284 284 282 281 281 281 280 278 282 283 278 279 284 282 284 284 284 285 287 291 294 296 295 296 296 297 297 297 296 296 295 295 296 297 299 299 300 301 302 301 302 303 303 304 304 305 306 307 307 307 308 308 309 310 310 309 308 309 311 312 314 315 315 315 314 314 314 314 314 315 316 316 317 316 316 319 320 320 318 318 317 317 317 316 315 313 313 312 311 310 311 312 310
281 284 284 284 284 283 282 281 280 281 278 275 279 282 277 279 285 286 286 284 285 287 288 291 295 297 298 297 296 296 295 295 294 295 296 296 297 298 299 300 299 299 301 303 303 303 303 303 303 304 305 306 306 306 306 307 308 309 309 309 309 309 310 311 313 313 313 313 312 312 313 314 315 315 316 317 317 316 316 319 321 320 318 318 315 317 316 315 314 313 312 312 311 311 312 312 311
286 286 283 282 282 281 280 281 281 278 273 276 280 282 281 277 285 288 287 287 289 290 290 292 294 294 294 294 294 295 294 293 293 293 295 296 298 298 297 296 297 298 298 299 301 301 303 303 303 303 304 304 304 304 305 305 306 307 308 308 309 309 310 311 311 311 311 312 311 311 311 313 315 314 315 315 316 316 317 317 318 319 318 315 316 320 316 314 313 312 313 312 312 312 313 313 312
287 283 282 281 279 281 279 278 279 275 273 277 276 279 281 276 282 288 292 289 287 290 289 289 291 292 292 293 293 292 291 291 291 292 293 294 294 294 294 295 296 297 296 297 299 300 302 302 302 303 303 303 303 303 304 304 305 306 306 308 308 309 309 310 309 310 311 311 311 310 311 310 310 312 315 315 315 317 317 318 316 315 315 316 316 316 315 314 313 313 312 311 312 314 314 313 313
285 283 282 278 275 276 272 276 271 272 274 276 272 272 276 277 284 290 285 289 290 289 290 291 292 292 292 292 292 291 290 289 290 291 292 293 294 293 293 294 295 296 296 297 299 300 300 300 301 303 302 302 302 303 302 303 304 304 305 306 307 308 309 310 309 310 310 310 310 310 310 309 309 309 311 314 316 317 317 316 315 314 315 317 317 315 314 314 313 312 311 311 311 312 313 314 313
281 281 279 276 273 271 269 273 273 274 276 270 271 277 274 282 285 289 289 291 293 293 292 292 292 292 293 292 292 291 290 289 290 291 292 294 294 295 295 295 295 296 297 298 299 300 300 301 301 303 304 302 302 302 302 302 303 304 304 305 306 307 308 309 310 309 309 309 309 308 309 309 308 309 310 312 317 317 318 317 316 316 316 317 316 315 314 313 313 312 310 311 310 311 313 313 313
281 284 282 279 278 274 270 273 270 273 276 273 274 274 274 278 283 287 289 291 291 292 292 293 292 292 292 291 292 291 291 290 291 291 292 294 295 296 296 296 296 297 298 298 299 299 301 301 301 302 304 302 302 302 302 302 303 303 304 305 305 306 307 309 310 310 308 308 307 307 308 308 308 310 312 313 315 317 318 318 317 317 316 315 315 315 313 312 312 311 310 310 310 311 312 314 313
283 284 285 280 279 285 278 278 278 274 272 272 273 275 283 284 290 289 291 290 290 290 290 290 290 291 290 290 292 293 293 293 292 291 292 294 295 296 296 297 297 297 298 299 298 300 301 302 302 303 304 302 302 302 302 302 303 303 303 304 304 305 306 307 308 309 309 309 307 307 307 308 309 313 316 314 316 318 318 317 317 317 317 315 314 314 313 311 311 310 309 309 309 310 311 312 312
280 282 277 280 284 280 276 273 272 273 275 273 280 277 281 286 288 290 291 291 291 290 290 289 289 291 290 291 293 294 293 294 293 293 293 294 295 295 296 296 297 297 298 298 298 299 300 301 302 302 302 303 302 302 302 302 303 302 302 302 303 303 304 305 307 308 309 310 309 308 308 308 309 313 317 317 317 319 318 317 317 317 316 315 314 313 313 312 311 310 309 309 309 310 311 312 312
283 275 280 283 284 285 280 275 274 273 273 276 279 276 280 281 280 289 288 289 290 291 292 290 289 289 289 290 292 294 295 295 294 293 294 295 295 294 295 297 297 297 297 298 299 300 301 302 302 302 301 301 301 302 302 301 301 301 301 301 302 303 304 305 306 307 308 309 311 311 309 308 307 309 318 319 319 318 317 314 316 316 315 315 314 313 312 312 310 309 309 309 310 310 310 311 311
283 280 287 279 274 274 279 278 270 270 271 274 277 278 280 283 283 287 287 287 289 290 291 289 288 288 289 291 291 293 294 295 293 293 293 294 294 295 295 295 297 297 298 299 300 300 300 301 302 303 302 303 302 302 302 302 302 301 301 300 301 303 304 305 305 306 308 309 311 311 309 308 309 310 312 317 318 318 317 316 316 315 315 314 313 312 312 311 310 309 309 308 308 309 308 308 310
284 285 283 285 284 279 277 276 280 279 274 275 275 277 276 284 285 288 289 289 290 288 288 290 291 291 291 292 293 293 293 294 294 294 294 295 295 295 295 296 296 296 296 297 298 298 299 300 300 301 303 302 302 302 302 302 301 300 300 300 300 301 303 304 304 305 306 308 310 310 310 308 307 310 312 315 316 317 317 316 316 316 314 314 313 312 312 311 310 309 308 308 308 308 307 307 308
278 279 278 281 280 284 282 283 278 276 275 277 277 276 280 286 290 289 289 290 291 292 291 292 292 293 293 293 294 294 294 294 295 295 294 295 295 295 296 296 297 297 297 296 296 297 299 300 300 301 301 300 300 302 302 303 302 300 299 299 300 300 301 302 303 304 305 307 309 309 310 308 308 308 310 312 315 316 316 315 315 314 314 313 311 311 311 310 309 309 308 308 308 308 307 308 308
280 279 278 279 278 276 273 272 283 279 277 275 277 275 285 287 288 290 291 292 292 293 294 294 293 292 292 292 293 294 295 295 295 294 295 295 295 296 296 296 296 296 295 294 295 296 296 298 300 300 301 301 301 301 301 303 302 302 300 300 299 300 300 302 302 303 304 305 308 308 309 311 309 307 310 310 308 309 312 313 313 313 313 313 312 311 311 310 309 309 308 309 308 308 307 307 308
Wind_Speed
6 4 4 2 2 2 3 2 6 4 3 9 9 6 3 7 2 3 4 6 6 4 1 0 2 3 5 3 5 4 3 5 4 4 2 3 6 2 8 8 5 6 7 5 10 13 13 13 10 11 14 14 14 15 15 15 13 13 13 13 14 13 13 14 15 16 17 17 16 15 14 13 13 12 13 13 13 13 13 13 13 12 12 11 10 11 11 11 10 11 10 7 7 9 10 10 12
4 4 1 2 0 3 4 1 4 3 4 8 10 4 5 5 3 9 7 8 2 6 1 2 2 4 4 5 3 2 2 3 4 3 0 2 6 2 9 8 6 5 5 4 11 13 14 15 11 10 13 14 15 16 16 16 16 14 14 13 13 14 13 14 15 16 16 16 16 15 13 13 13 13 12 12 12 12 13 13 14 14 13 13 12 13 13 12 10 10 11 11 9 11 11 12 13
4 3 3 2 3 2 3 2 6 5 8 11 7 9 5 7 10 9 6 4 4 2 2 0 2 3 4 4 5 6 2 1 1 2 1 4 4 5 9 8 7 5 3 5 11 13 11 14 11 10 10 15 15 16 16 17 16 16 15 15 14 14 14 14 16 16 17 17 15 15 15 14 13 13 13 13 12 11 12 14 15 14 14 14 14 13 12 12 12 12 13 12 12 12 12 13 13
2 1 2 3 5 2 5 3 7 6 9 9 5 8 8 10 10 4 6 4 2 2 1 4 4 2 3 6 1 1 2 3 2 1 1 2 2 6 7 6 4 3 1 6 10 12 11 13 11 9 9 11 15 16 16 17 17 17 16 15 15 15 15 15 15 16 16 15 16 15 16 15 15 14 14 13 13 12 12 13 14 15 13 11 15 13 12 11 12 14 14 13 15 14 13 12 12
2 1 2 2 3 5 4 4 4 5 12 6 5 5 9 9 5 7 4 2 1 2 2 1 2 2 3 3 2 3 4 5 3 1 2 2 2 3 4 4 4 3 4 7 10 9 10 13 11 9 9 9 13 15 16 17 17 17 16 16 16 16 16 16 14 14 14 15 16 16 17 17 16 16 15 14 14 13 13 12 13 12 10 11 13 12 12 13 13 15 15 14 15 15 14 13 13
1 1 1 3 2 4 1 3 7 10 9 1 7 1 6 5 5 6 5 0 1 2 2 1 3 3 3 1 2 1 3 2 4 3 1 3 3 3 1 2 4 3 4 7 7 8 9 9 9 8 7 8 11 15 16 17 18 17 17 16 16 16 16 15 15 14 13 15 17 18 17 17 18 15 15 15 15 13 14 12 12 11 9 9 13 12 13 15 15 16 16 16 15 16 15 14 14
1 4 2 3 2 2 6 9 10 9 8 2 6 1 3 6 5 6 6 5 1 3 1 1 1 2 5 3 3 0 1 2 3 4 1 2 2 3 1 1 3 5 6 7 8 8 9 6 7 6 6 7 10 13 17 18 18 18 16 15 15 16 15 15 15 15 13 16 17 18 17 17 18 14 15 16 16 15 16 13 12 11 8 8 11 13 13 14 14 14 14 15 16 18 17 15 14
1 3 2 5 4 2 8 10 10 7 2 4 2 2 4 6 5 5 6 7 6 5 5 1 2 4 1 0 3 6 3 1 5 4 2 1 3 3 3 3 4 5 6 7 7 7 8 7 6 3 5 3 8 12 16 18 17 17 15 15 15 16 15 15 15 15 14 15 18 19 19 16 14 14 14 15 15 16 17 16 14 12 11 11 12 13 12 10 14 14 15 15 15 17 16 14 12
1 1 1 3 7 2 5 10 12 4 3 2 4 2 3 2 5 3 6 2 3 3 5 5 4 4 4 6 3 6 4 5 5 3 2 3 4 4 3 4 4 5 5 6 7 6 8 8 6 3 3 1 4 8 13 14 14 14 14 15 16 15 15 15 15 15 15 14 15 16 14 14 15 14 14 15 14 16 17 17 18 15 12 10 12 14 13 11 15 15 15 16 15 15 16 13 13
3 3 4 4 3 9 8 11 10 6 7 4 5 6 6 4 5 4 4 5 6 4 5 3 1 8 4 7 4 6 6 8 6 4 3 3 4 5 6 6 5 5 5 5 5 7 7 8 7 5 4 3 4 3 11 11 13 12 13 14 16 16 16 16 15 15 15 16 16 16 15 15 15 15 15 15 14 16 16 16 18 18 16 14 13 15 14 12 14 15 15 16 15 13 14 14 13
4 2 3 5 7 9 11 10 12 4 6 2 6 7 5 4 5 6 7 4 2 6 5 3 5 9 5 6 5 5 5 8 7 5 3 3 3 4 6 6 6 5 6 5 5 5 7 9 7 5 3 5 5 2 7 9 13 15 15 15 16 17 17 17 17 16 16 17 16 16 17 16 16 16 15 15 14 14 15 15 15 17 18 17 16 16 15 11 15 15 16 15 15 13 12 12 11
5 5 4 9 10 10 10 11 12 8 5 3 5 7 6 8 6 7 10 10 7 8 8 10 2 6 8 4 6 6 7 10 8 4 3 1 3 3 3 5 6 6 5 6 6 6 5 7 8 7 6 7 8 6 4 5 4 8 13 12 13 14 16 16 17 17 17 17 17 17 17 17 17 16 15 15 13 13 14 14 13 18 18 19 18 19 14 11 14 17 17 15 13 10 9 10 9
6 4 7 8 9 8 7 8 12 7 6 8 9 5 5 9 11 11 9 11 7 9 12 12 3 5 5 7 3 5 8 10 6 4 2 1 2 2 1 4 4 6 5 4 5 5 6 6 7 5 5 8 9 8 6 3 5 4 4 7 14 15 16 16 16 17 17 18 18 17 16 17 17 16 15 15 13 12 14 14 14 17 18 20 19 17 15 14 15 16 15 15 13 9 8 9 9
7 4 5 9 4 6 7 11 7 9 11 4 4 5 7 6 9 8 5 9 11 12 0 4 4 4 11 1 5 7 10 10 7 3 2 0 1 1 2 2 3 3 3 4 5 5 4 3 4 5 5 5 5 8 7 6 7 5 7 3 5 9 15 16 16 17 18 18 17 16 17 17 17 16 15 15 14 13 13 14 14 14 18 19 19 17 16 17 18 17 16 14 13 10 8 9 9
6 2 5 7 4 3 8 10 10 11 11 4 5 8 6 5 1 6 10 12 12 2 2 2 3 5 5 11 7 10 12 12 7 4 2 0 0 0 1 1 1 2 2 2 3 3 4 3 3 3 4 4 4 4 5 7 7 8 7 7 4 1 5 11 15 16 16 17 17 16 17 17 16 16 16 15 14 14 14 14 14 13 17 16 16 17 18 19 18 17 17 15 13 10 9 9 9
1 5 4 6 10 9 7 11 2 8 8 4 4 2 8 3 3 6 7 5 1 2 3 7 6 6 2 9 4 5 14 11 6 3 3 2 1 1 1 1 2 0 1 1 2 2 2 3 2 2 3 3 3 2 4 6 7 8 9 11 10 6 4 4 11 13 15 16 16 16 17 16 15 15 15 15 15 15 14 13 13 11 15 18 15 17 17 18 19 17 17 17 15 12 10 9 8
1 3 6 8 12 10 8 9 7 10 1 5 7 7 10 7 5 4 3 3 7 7 8 6 10 4 6 2 4 8 10 9 4 4 4 4 4 4 3 3 2 3 1 2 2 2 2 2 2 2 2 2 2 2 2 3 4 5 6 7 8 11 9 7 8 10 11 14 14 14 15 15 16 14 14 15 14 14 14 14 14 12 13 15 16 16 15 16 17 18 17 17 15 13 11 10 7
5 8 9 12 11 11 10 12 9 2 4 5 8 9 7 7 6 5 2 6 9 4 8 10 8 9 9 1 3 5 5 5 4 5 5 5 4 4 5 4 3 4 3 3 4 3 3 3 3 3 2 3 2 2 1 1 3 3 4 6 6 7 9 10 9 9 9 10 13 13 13 15 14 14 15 17 13 15 13 15 14 14 14 10 15 16 15 15 17 18 18 17 13 11 13 8 8
8 6 8 14 10 8 4 6 7 4 6 5 7 7 7 5 8 6 7 8 11 11 13 11 13 14 12 12 7 6 5 5 6 6 7 7 6 7 6 4 4 3 4 4 4 5 4 3 4 4 3 3 3 3 2 2 3 3 4 4 4 7 8 10 8 10 8 10 12 13 14 14 15 14 15 15 14 17 17 15 15 15 14 10 14 16 15 15 17 16 16 14 12 11 9 7 8
7 5 11 14 3 0 2 2 6 5 2 6 7 6 5 3 4 5 8 9 10 15 11 13 16 17 18 16 14 12 10 10 8 8 8 8 8 8 6 6 5 5 5 4 4 4 4 5 5 4 5 4 4 3 3 3 3 4 4 4 4 5 7 8 10 10 11 12 12 12 12 14 14 13 14 17 13 14 13 15 15 14 14 11 14 14 14 14 16 14 13 11 10 8 8 9 9
4 6 11 5 2 6 5 7 5 2 2 4 7 4 5 7 6 7 5 9 15 14 15 14 15 18 14 14 15 13 12 12 11 9 10 10 9 6 6 6 5 3 3 2 3 4 6 6 5 5 5 4 5 4 4 4 4 4 4 4 4 4 5 7 8 9 13 16 16 11 11 10 12 13 13 14 14 15 15 12 10 11 10 10 12 14 13 13 14 14 12 11 9 9 9 9 8
1 12 5 3 3 5 2 2 3 3 1 2 4 7 8 4 4 11 11 12 11 7 12 16 16 11 8 8 8 8 12 14 14 12 12 12 11 9 6 6 6 5 3 4 6 6 6 6 6 5 6 6 6 5 5 4 4 5 5 5 5 5 6 6 6 7 10 14 15 12 12 11 11 12 12 14 15 14 12 14 15 13 13 14 13 15 14 13 14 13 13 13 11 10 10 9 9
8 9 7 2 2 6 3 1 3 5 5 8 6 6 3 7 6 11 14 20 9 3 2 4 8 8 2 3 5 7 10 12 12 13 12 11 10 9 8 7 6 6 6 7 6 5 5 5 6 5 5 6 8 7 6 5 5 5 5 5 5 5 6 6 6 6 7 12 15 12 12 13 12 10 13 15 17 14 12 11 11 12 13 14 14 15 16 14 13 13 12 12 12 11 11 10 9
7 7 4 4 3 9 2 0 4 6 4 7 1 2 7 4 10 3 14 21 17 9 2 1 2 2 2 5 7 9 10 10 11 10 10 10 10 11 9 8 7 4 4 6 6 6 6 7 6 6 6 6 7 7 8 6 6 6 5 4 5 5 5 6 6 6 7 9 11 13 12 12 15 15 13 15 17 15 13 16 16 17 15 14 15 15 15 15 16 14 14 13 12 12 12 10 9
10 11 6 2 2 4 1 1 4 3 5 1 2 6 9 6 9 8 21 14 13 16 13 7 3 3 4 6 10 10 10 10 10 10 7 8 9 9 7 6 6 5 7 8 7 6 7 6 6 7 7 8 7 7 8 7 7 6 6 6 6 5 5 6 6 6 7 8 10 11 11 11 14 13 13 13 13 15 16 16 18 17 16 15 15 14 13 15 15 15 14 12 11 12 12 12 10
12 12 3 2 4 2 3 3 5 6 2 3 6 12 9 6 7 15 28 16 14 16 15 14 10 10 12 13 12 12 12 14 12 12 13 10 9 9 11 9 7 8 11 10 8 7 7 7 8 9 8 8 7 7 7 7 7 7 7 7 6 5 6 6 6 6 6 7 8 11 12 11 10 14 16 13 14 16 14 15 19 19 18 16 17 15 13 15 15 13 14 14 12 14 13 12 11
2 0 5 8 6 4 5 7 5 5 6 5 9 12 6 3 4 13 2 5 11 12 14 9 11 15 14 12 12 12 13 15 14 12 9 9 10 11 12 9 10 12 9 10 9 8 8 8 10 9 9 9 7 7 7 8 7 8 8 7 6 6 5 5 5 6 6 6 8 10 12 13 10 9 10 14 14 16 15 15 17 17 18 17 17 16 16 15 15 15 15 14 13 14 13 12 12
2 1 5 9 7 7 6 4 5 3 6 11 9 12 3 5 4 20 4 1 4 8 7 8 11 13 12 13 12 10 9 10 9 9 14 12 11 11 12 11 12 11 11 11 10 8 9 11 10 11 10 9 9 8 8 8 8 8 7 7 7 5 4 4 5 5 6 7 7 9 11 12 11 11 10 10 11 13 14 13 17 18 19 15 17 17 17 16 15 14 16 12 11 13 12 12 12
1 3 6 3 5 8 10 10 9 9 7 7 6 9 12 12 13 26 8 4 5 5 6 7 10 10 9 9 8 8 9 8 8 9 13 12 9 7 11 11 10 10 9 10 10 9 11 10 10 11 11 11 10 10 9 8 8 7 7 7 6 3 4 4 5 5 6 7 7 8 9 12 12 11 10 11 13 12 11 14 19 22 20 19 18 20 17 14 15 13 11 11 12 11 13 11 11
2 1 3 10 9 11 3 4 4 9 4 9 7 9 11 18 24 16 9 7 6 7 9 9 8 8 8 9 9 9 8 8 10 11 10 10 10 9 10 10 11 9 7 7 9 11 9 6 7 8 10 11 11 10 9 8 8 7 6 6 5 4 5 5 5 5 5 6 7 8 7 8 9 12 13 12 11 12 13 14 15 14 17 19 18 19 17 14 14 12 15 11 12 12 11 11 10
2 2 1 6 4 5 3 3 6 8 4 9 6 12 14 4 11 6 6 5 6 12 13 10 9 8 8 8 8 10 11 11 12 12 12 11 10 9 11 9 11 11 8 8 10 11 10 9 7 7 9 11 11 11 10 9 7 6 6 5 5 5 5 5 5 5 5 6 6 7 7 8 8 7 10 12 12 12 14 15 18 15 16 13 16 15 14 12 13 18 14 17 11 11 9 10 10
1 2 6 4 7 3 3 4 10 8 3 6 7 13 15 14 8 7 4 6 7 10 9 7 7 7 7 7 8 9 10 9 11 11 12 12 12 11 11 12 10 10 11 9 9 9 10 10 9 10 10 12 11 11 10 8 7 6 5 5 5 5 5 6 6 6 6 6 7 7 7 8 8 8 7 8 9 9 11 13 14 15 14 15 20 16 13 16 16 14 16 13 15 12 12 10 9
3 8 7 4 5 3 5 4 2 4 3 4 14 9 5 2 3 5 5 6 5 5 8 7 7 8 8 8 7 8 9 9 10 12 12 11 11 10 9 10 10 10 9 9 10 9 10 10 10 11 12 12 11 10 9 8 7 6 6 6 6 5 6 6 6 6 6 7 7 7 7 7 8 9 8 8 8 9 9 11 15 16 16 13 18 14 15 12 15 13 15 15 14 13 12 13 10
7 7 10 5 6 3 5 5 3 4 4 9 14 10 14 7 3 2 2 3 2 5 8 9 8 8 10 9 9 10 11 10 12 13 13 12 9 10 10 9 9 9 9 10 10 9 9 9 9 10 9 10 9 9 8 7 7 6 6 6 6 6 7 6 6 7 8 8 8 8 8 8 7 8 9 9 8 9 9 10 11 15 17 18 17 17 17 14 13 15 18 13 15 13 12 14 13
8 9 9 7 6 8 10 4 3 5 6 6 9 18 19 14 15 13 7 6 8 11 11 13 14 13 12 11 11 13 14 15 16 14 10 11 11 10 9 8 8 9 7 9 8 8 7 7 7 9 10 9 9 8 7 7 6 6 6 6 6 7 7 7 7 7 7 7 8 8 7 7 7 9 9 9 9 8 8 10 12 13 13 16 18 16 15 16 16 17 19 16 15 15 14 15 14
8 10 9 7 8 10 12 5 3 5 7 9 12 14 12 15 19 19 16 13 15 18 11 11 14 13 13 13 13 13 15 18 16 7 9 9 10 10 9 7 8 7 7 7 8 8 8 7 7 7 9 9 8 7 7 6 6 7 7 6 7 7 7 7 7 7 6 6 6 6 6 6 6 6 8 9 9 9 9 9 11 12 13 15 17 17 17 16 18 19 20 21 18 13 11 10 11
5 4 9 10 11 9 5 1 3 1 3 14 14 14 18 16 16 15 15 11 15 16 15 15 15 15 15 15 15 16 17 20 8 7 9 11 11 9 8 7 8 8 7 8 8 9 9 9 8 10 8 9 8 8 7 8 8 7 6 7 8 7 7 7 6 6 6 6 6 5 5 5 5 6 7 8 9 9 9 8 10 11 12 14 14 19 21 22 19 18 17 13 20 17 10 11 11
2 3 7 9 9 9 2 3 2 1 3 3 2 11 19 15 14 17 15 15 22 18 17 19 20 18 16 17 19 19 19 9 6 7 9 9 8 9 8 7 8 10 9 9 10 10 9 9 9 9 7 8 9 9 8 8 8 7 7 7 6 6 6 6 6 6 6 5 5 6 6 6 6 7 7 8 10 11 9 7 8 8 9 13 17 18 19 20 20 18 16 11 12 14 11 13 13
7 8 8 7 7 2 2 1 2 2 2 10 4 11 20 14 12 16 15 18 20 16 17 21 20 20 16 15 18 19 14 12 8 10 9 10 11 10 9 8 8 10 9 11 9 9 9 9 9 8 8 8 8 9 8 8 7 6 6 5 5 5 4 4 4 3 3 4 5 6 6 6 7 7 8 9 10 11 12 12 10 9 8 11 11 15 22 21 19 20 20 17 11 7 9 9 14
10 8 9 13 2 6 5 3 2 3 5 5 7 14 17 20 12 18 19 18 21 16 15 16 16 20 20 20 17 13 15 13 12 11 11 11 11 10 9 9 9 7 7 7 8 10 8 9 9 9 8 8 8 9 8 7 6 5 4 4 3 3 3 1 2 4 5 6 7 6 6 6 8 8 9 10 10 11 12 13 9 9 11 9 11 11 13 23 21 19 20 19 16 15 12 9 8
12 12 12 13 4 1 3 2 1 1 4 1 8 10 17 19 12 6 13 16 13 12 7 9 8 12 15 15 14 16 17 13 11 10 10 10 10 11 11 10 8 8 9 9 8 9 6 10 10 9 7 8 7 8 8 6 5 4 4 4 4 4 5 5 5 6 6 7 7 6 7 8 8 9 9 11 10 11 12 12 10 10 10 11 10 11 16 16 19 22 25 20 17 17 15 14 10
10 15 17 10 5 3 3 2 1 3 5 6 2 7 12 5 4 7 2 0 9 11 9 15 15 17 16 17 19 15 14 13 13 11 10 11 11 10 10 9 9 8 9 9 8 8 8 8 8 8 7 7 7 8 8 7 7 7 6 6 7 6 7 7 9 9 8 9 9 8 8 8 9 9 9 11 11 11 12 13 12 8 10 10 9 10 13 18 21 21 23 22 22 17 20 17 15
10 7 13 11 6 3 3 5 2 5 9 2 1 7 14 6 5 4 2 4 7 5 8 10 9 8 10 12 12 11 12 9 9 10 8 8 9 11 11 10 10 10 9 6 6 7 8 8 8 8 7 6 6 7 9 7 7 7 8 8 8 8 9 8 7 8 8 7 6 7 6 6 8 9 10 10 11 12 13 13 14 9 9 9 9 8 11 14 18 23 21 21 22 18 17 18 15
10 4 3 11 15 13 10 11 11 7 5 2 3 4 7 14 12 6 3 5 7 9 11 9 9 10 10 10 12 12 10 9 7 9 10 8 8 11 13 11 10 9 7 6 6 6 9 8 8 8 6 6 6 7 9 8 7 7 7 8 7 8 9 8 6 6 5 3 3 3 5 7 8 9 10 11 11 12 13 14 15 11 9 9 8 8 9 11 13 16 21 21 19 18 18 18 17
2 3 2 8 13 14 10 9 8 3 2 10 9 4 4 8 7 3 3 4 7 12 13 12 13 12 13 14 14 13 10 9 9 8 9 10 11 11 9 10 9 7 6 7 7 7 6 7 7 7 7 7 6 9 8 8 7 7 7 7 8 7 8 7 6 5 4 3 5 5 7 9 9 10 11 12 11 12 13 14 15 13 11 10 8 9 8 11 14 17 19 18 19 15 10 12 16
3 6 8 7 7 5 4 6 6 1 5 11 8 11 7 10 19 3 2 4 13 10 8 15 14 15 8 7 10 10 8 7 9 11 9 9 9 8 7 4 5 5 4 4 4 5 5 6 7 8 8 6 6 8 8 8 8 6 7 8 8 8 7 7 7 7 7 6 7 8 9 9 10 10 11 14 12 11 13 14 12 14 13 11 9 10 11 10 13 17 20 21 21 20 14 11 15
13 10 12 8 5 4 2 1 3 3 6 16 6 11 8 9 13 6 6 6 4 5 5 8 9 8 9 7 9 8 6 7 8 10 10 9 7 7 6 8 7 4 4 4 4 5 6 6 8 8 8 6 7 8 8 8 7 7 7 7 9 9 9 8 7 8 9 10 9 10 9 10 10 13 13 13 12 11 13 13 11 12 11 10 9 8 12 10 11 15 18 20 20 21 16 13 14
13 4 7 9 4 4 3 2 2 6 9 2 7 13 9 11 11 9 8 4 2 4 4 4 5 4 3 4 4 5 6 6 7 8 9 10 8 6 5 8 8 7 5 5 5 5 6 6 7 9 8 7 7 7 8 7 7 7 6 7 8 9 9 7 8 9 10 10 11 11 9 7 10 11 12 11 12 11 11 11 11 9 8 11 11 7 7 13 11 11 12 14 18 19 15 14 14
6 6 8 9 5 3 4 4 6 11 9 0 2 2 1 12 19 4 3 1 5 7 6 6 5 4 2 3 2 1 2 4 7 8 9 9 10 10 10 10 8 8 8 9 8 7 6 7 8 10 9 9 8 8 9 8 8 7 7 7 8 8 8 9 7 9 9 9 8 9 10 10 10 11 11 12 14 15 11 12 12 11 9 9 12 12 9 9 12 10 11 14 14 15 13 14 12
9 13 13 11 8 4 6 6 1 3 1 3 1 4 4 7 13 28 24 20 17 11 6 7 6 6 3 5 3 3 1 4 5 6 8 9 9 9 10 10 10 9 9 8 8 7 7 7 8 9 9 9 8 8 9 9 8 7 6 7 7 6 8 7 7 7 7 6 6 8 10 11 11 13 15 15 13 15 12 11 12 11 10 10 11 12 13 9 11 11 11 13 15 15 9 12 12
14 11 14 12 11 7 7 8 9 7 2 4 5 3 7 7 7 6 2 4 3 6 4 6 5 7 5 3 4 4 4 3 3 5 7 9 9 10 10 10 9 9 9 8 7 7 7 7 8 8 9 9 9 9 8 8 7 7 7 7 7 6 7 6 5 5 6 5 5 7 10 10 11 12 13 11 13 14 14 12 12 12 11 11 12 12 13 12 8 7 9 9 9 9 8 9 8
10 4 1 4 11 2 7 1 1 3 4 4 4 7 5 12 8 10 6 7 8 7 6 5 10 8 6 6 6 5 5 3 3 4 6 7 8 9 7 8 8 8 9 7 8 7 7 8 8 9 9 10 9 9 8 8 7 6 6 7 7 7 7 6 5 5 5 6 6 8 9 10 10 10 7 3 8 11 12 13 12 13 12 12 11 13 14 12 11 7 7 7 10 10 10 11 6
10 7 11 9 6 4 4 2 1 2 1 6 6 5 10 12 20 22 22 17 14 8 8 7 10 7 5 8 7 6 6 5 3 5 6 8 7 7 7 8 8 8 8 9 9 8 9 8 8 8 7 7 8 9 8 7 6 6 7 7 7 8 9 8 6 6 7 6 6 7 6 8 8 7 1 4 9 9 10 10 11 9 11 12 12 11 13 14 14 10 8 9 12 11 10 9 7
8 5 9 6 1 2 2 8 3 3 8 4 10 11 11 7 10 3 4 14 14 14 13 8 5 4 7 9 9 7 7 7 5 5 6 7 8 8 7 6 8 9 9 9 9 8 7 7 8 9 8 9 9 9 8 8 7 7 6 7 8 8 7 7 6 6 6 5 5 4 4 6 6 6 3 6 8 9 8 10 9 9 8 9 11 12 13 13 15 12 11 9 8 8 11 8 6
3 5 3 10 5 6 6 3 9 4 8 7 5 9 13 12 14 5 6 5 4 8 9 4 7 8 10 8 9 8 7 6 6 7 7 8 9 9 9 9 7 7 8 8 7 7 6 6 6 7 9 9 9 7 7 6 7 5 6 7 7 7 7 5 5 5 5 5 5 3 2 5 6 4 1 6 9 10 10 9 9 8 8 8 8 10 11 12 12 13 12 9 8 9 8 11 8
1 2 5 7 3 5 10 9 1 4 9 3 9 8 10 11 16 18 17 7 1 4 4 11 12 9 8 9 8 9 9 8 7 7 8 9 9 9 9 10 10 10 8 7 7 5 7 7 7 6 4 5 6 7 7 8 8 7 7 6 6 6 6 5 4 5 4 5 4 2 1 3 5 3 2 5 8 10 12 14 12 13 11 11 11 11 11 12 11 11 12 11 9 10 10 9 8
7 5 6 6 4 2 3 2 8 4 7 12 9 9 7 12 9 12 16 15 11 9 6 8 11 11 10 8 7 8 9 8 7 7 7 8 9 9 8 7 6 5 4 5 6 7 7 6 7 6 8 7 7 7 8 7 7 8 8 8 7 7 7 5 5 5 5 4 4 3 0 1 3 3 3 5 8 10 11 12 12 11 13 12 12 12 11 12 11 11 10 10 10 10 11 9 9
15 16 16 16 15 10 8 8 7 5 7 7 9 15 8 2 1 10 14 10 10 10 7 5 5 3 3 5 8 7 8 9 8 7 6 6 8 8 6 4 3 4 6 7 6 5 6 7 7 6 6 6 7 7 7 7 7 7 8 8 7 7 6 6 6 5 5 5 4 3 2 2 2 2 3 5 6 3 7 10 11 11 12 12 12 13 13 12 13 12 12 10 11 11 11 11 10
Wind_Direction
318 334 324 307 265 258 203 185 229 159 228 236 242 189 239 201 55 193 179 133 198 143 113 67 264 193 246 14 13 39 39 308 13 280 42 52 356 329 356 351 318 260 262 261 200 184 188 185 188 178 180 181 176 173 168 175 164 166 154 149 149 154 156 159 163 164 167 163 166 165 165 164 163 165 162 164 170 175 178 179 183 181 177 170 166 152 142 142 161 157 147 146 161 137 129 139 121
326 327 307 237 255 205 174 340 265 185 215 251 235 206 202 151 176 225 198 187 44 131 70 289 230 241 292 280 290 306 194 45 5 17 343 355 319 17 2 347 347 315 294 229 189 181 182 182 187 182 178 184 176 177 173 169 167 170 161 155 153 154 158 159 163 165 167 167 169 166 167 165 167 169 164 169 177 185 186 182 183 184 180 173 149 145 142 150 161 153 141 153 158 140 141 132 137
326 318 152 215 156 313 99 220 238 211 227 237 225 205 111 205 210 211 199 125 104 37 4 0 147 176 168 181 191 218 100 41 143 58 311 349 334 10 349 346 349 334 304 183 180 177 178 179 180 185 181 184 182 177 177 171 170 169 168 164 158 159 162 166 166 170 171 172 167 168 166 167 169 168 164 169 178 182 182 182 182 185 184 174 157 159 154 165 163 152 151 148 149 139 141 144 147
285 305 259 196 149 258 185 183 252 235 232 245 257 172 193 214 217 160 99 91 68 311 330 163 220 52 266 202 85 116 101 159 76 6 87 7 337 318 329 328 10 359 151 166 169 176 182 162 171 182 188 190 191 184 178 176 173 172 173 172 168 164 167 171 175 175 177 173 169 170 165 168 167 166 168 169 170 171 176 182 180 186 189 169 155 166 163 169 157 158 149 156 143 139 146 148 151
258 94 279 257 208 179 208 222 253 222 241 226 243 136 203 209 187 130 105 69 51 308 337 64 222 75 5 3 120 262 95 94 167 155 86 26 340 338 311 331 25 71 132 154 166 175 177 146 162 180 191 203 196 186 186 179 179 175 176 175 176 174 173 175 181 181 177 174 174 172 171 171 169 172 171 170 172 169 169 179 183 185 179 165 161 160 163 166 167 151 151 154 145 144 149 152 152
207 236 119 259 261 14 247 209 217 228 241 355 247 138 200 188 174 133 129 324 349 337 1 261 323 145 192 133 342 317 134 218 111 152 261 76 0 349 322 297 46 86 136 154 161 177 175 129 155 170 200 206 205 194 184 189 183 180 178 177 179 179 175 178 180 186 178 177 177 177 175 175 177 180 173 174 176 169 162 172 181 179 176 173 153 158 167 171 163 152 155 153 148 148 146 146 144
131 167 114 126 117 231 241 236 242 230 227 207 268 29 172 155 128 138 141 135 108 296 114 335 220 107 234 142 204 245 1 60 192 98 285 30 359 48 111 56 63 98 145 156 165 167 157 119 136 172 198 213 218 193 189 192 187 185 181 178 179 179 177 180 180 184 181 180 182 177 176 181 182 179 183 174 182 167 159 170 176 178 168 153 150 165 173 174 142 142 143 146 149 146 143 142 141
78 257 97 217 182 202 227 247 251 238 210 231 39 290 134 150 139 185 160 208 172 206 164 147 231 271 8 350 235 116 113 112 86 103 97 34 71 85 66 98 92 94 132 153 164 152 122 96 90 147 201 229 236 210 195 196 192 186 183 180 180 178 182 182 181 181 185 181 183 183 180 185 177 183 181 178 186 169 166 169 172 174 172 166 169 168 177 155 135 141 138 143 152 145 140 138 136
49 236 62 253 223 182 252 237 252 216 273 154 225 323 359 118 183 183 192 189 90 235 168 187 188 231 143 173 238 130 147 135 118 106 77 72 76 74 74 69 84 103 111 155 162 168 165 105 112 126 168 79 22 215 199 195 201 194 188 182 180 179 183 183 181 181 184 185 183 184 182 179 184 183 173 182 186 172 173 174 170 170 166 169 169 168 170 155 142 145 145 144 153 148 143 139 142
126 291 197 227 275 232 232 245 240 239 227 191 236 199 191 175 193 224 224 200 213 169 193 72 205 245 116 210 167 184 178 164 144 119 81 60 61 77 82 74 86 110 117 136 174 175 168 118 120 132 174 88 73 228 208 200 203 197 206 185 181 180 182 182 182 182 184 185 186 185 182 185 181 174 176 184 189 177 176 174 174 165 164 160 167 172 172 161 145 145 150 150 153 150 148 146 154
179 102 359 225 214 242 230 244 243 200 203 169 251 224 209 194 213 216 220 247 123 221 132 168 215 225 192 229 226 59 101 169 176 153 106 71 57 64 83 73 62 81 117 129 147 186 176 175 111 113 86 70 61 106 216 211 202 207 211 195 188 182 183 182 182 184 186 187 187 185 185 183 174 178 182 185 190 178 173 175 167 164 168 167 165 181 170 169 149 143 148 156 157 153 154 149 151
201 188 150 236 231 228 238 249 250 248 133 179 243 168 190 190 187 222 209 223 203 221 220 164 271 156 206 220 221 153 153 187 183 145 142 149 103 68 51 88 74 68 77 129 150 158 183 178 182 107 85 80 80 90 156 212 250 260 209 216 201 193 185 185 184 185 186 188 188 187 188 177 176 182 182 184 189 177 173 175 166 162 172 165 168 179 164 169 154 150 153 162 161 151 153 146 149
235 140 207 240 241 232 254 269 260 271 262 223 229 143 138 188 199 220 224 221 211 212 226 202 56 215 230 210 61 139 176 174 161 152 177 230 99 99 92 80 69 65 72 90 127 140 161 181 188 177 107 110 94 97 117 119 210 213 330 249 210 195 193 189 188 188 187 188 189 190 182 177 180 182 180 184 187 180 176 178 178 162 172 162 174 168 164 160 160 162 156 162 162 157 157 146 149
222 190 202 234 70 246 232 251 264 263 251 221 144 113 177 193 223 227 210 218 216 216 38 192 175 192 253 323 181 189 188 163 161 165 181 1 16 69 49 60 55 55 57 95 101 111 113 132 156 157 161 182 143 121 120 133 123 153 152 100 322 242 199 191 192 190 190 189 190 186 179 179 182 181 181 185 189 184 181 182 184 168 172 171 174 170 161 161 163 164 163 164 164 166 161 150 147
219 115 223 253 227 207 223 237 246 247 257 150 130 155 169 233 311 207 211 223 228 145 63 240 196 171 235 196 218 188 178 163 161 169 187 179 275 99 18 54 103 43 50 63 95 111 103 100 116 132 140 169 169 188 167 153 156 143 143 144 195 247 280 221 198 196 194 192 191 184 180 181 183 182 184 186 187 187 185 184 187 175 165 176 180 170 165 163 167 162 158 161 165 166 165 151 145
191 167 229 231 236 215 208 222 207 269 259 156 124 143 185 162 200 195 223 274 332 35 191 195 211 224 354 209 19 166 150 144 146 175 184 196 216 228 243 257 235 36 357 18 161 132 123 133 149 133 128 129 148 167 175 176 166 157 152 163 166 190 199 245 228 207 199 195 193 185 183 182 184 186 186 186 185 185 184 188 186 187 173 179 184 173 168 167 170 165 162 164 160 168 158 146 129
153 237 213 229 243 193 205 209 160 247 153 121 128 169 187 199 159 267 5 287 238 201 203 222 194 239 241 289 53 120 114 116 132 163 192 213 213 207 211 220 220 206 217 232 247 176 168 175 172 174 145 123 131 136 149 161 135 157 157 162 168 171 180 217 231 228 219 201 194 189 184 188 190 189 187 191 184 185 182 189 181 190 191 181 181 173 171 171 163 165 163 164 161 163 144 129 127
173 203 219 232 229 215 211 207 197 339 299 159 177 192 204 204 164 195 166 239 232 221 219 227 241 249 242 186 113 103 115 147 162 181 200 211 208 227 216 198 210 217 191 195 207 223 204 202 196 209 167 171 174 173 161 174 157 189 179 172 191 176 181 192 201 221 218 218 199 190 194 195 194 192 192 192 185 187 184 187 181 186 193 183 178 171 171 166 160 167 167 164 156 149 137 149 153
195 210 221 238 214 227 149 223 206 207 242 157 179 187 215 222 170 175 214 216 208 228 230 228 237 236 235 235 208 206 194 214 206 220 226 225 220 222 230 211 202 212 216 206 197 199 210 212 208 209 208 189 202 200 197 199 200 199 182 184 174 195 191 196 191 193 207 218 209 200 197 199 197 195 194 191 190 186 186 185 184 186 187 177 179 170 172 163 160 167 165 157 143 147 159 164 163
232 223 223 235 218 251 212 181 213 224 69 154 170 194 220 199 197 118 225 239 199 220 219 216 228 233 226 226 218 215 217 230 228 230 238 237 226 222 226 229 230 219 212 199 198 183 206 220 213 218 212 214 209 209 209 204 215 204 207 186 186 191 197 196 200 198 197 201 215 209 203 201 200 201 193 187 188 183 182 180 184 187 184 172 180 169 172 162 156 158 154 142 146 171 177 178 172
165 220 232 240 58 243 219 207 224 189 279 190 182 110 223 222 212 194 234 243 234 228 223 220 214 222 221 218 217 212 219 231 234 229 238 233 226 223 230 231 228 216 190 211 234 216 211 216 216 219 223 221 220 223 210 222 204 215 213 208 189 193 196 198 199 200 203 206 208 210 212 209 202 203 195 190 194 190 188 181 180 188 188 185 178 182 179 171 165 171 162 165 179 182 182 183 180
116 227 267 45 78 233 74 191 117 164 24 201 148 184 223 93 214 225 223 231 247 208 221 226 241 241 219 198 202 203 213 222 226 219 218 220 219 224 225 238 241 234 207 227 228 225 212 203 210 216 213 221 226 226 222 214 211 222 212 211 207 201 198 204 205 199 201 208 209 204 207 209 210 204 196 191 193 192 183 185 186 187 188 189 182 188 187 177 179 176 173 181 185 185 188 188 185
234 229 246 227 238 264 65 156 175 171 177 197 199 227 81 211 242 217 227 233 235 58 18 225 233 239 214 89 156 184 198 204 206 205 206 213 224 230 229 230 227 219 205 220 220 222 217 211 206 212 216 214 223 228 230 223 223 220 219 210 212 206 201 204 204 206 205 207 210 204 207 205 206 208 202 194 194 189 185 184 182 182 184 188 186 190 187 182 179 179 179 185 188 186 186 189 191
250 251 94 228 164 233 92 143 142 205 195 215 247 55 233 179 256 200 240 238 239 253 132 224 258 51 103 197 201 205 199 199 203 208 207 218 226 229 225 226 228 231 228 224 220 218 216 217 207 201 220 223 219 219 224 225 223 223 219 210 217 222 219 215 209 203 205 214 209 206 212 215 203 200 200 195 195 190 189 188 190 188 185 187 187 191 186 184 186 183 184 184 185 188 184 183 194
224 247 225 240 208 240 197 147 185 190 231 46 251 247 243 222 262 329 260 237 230 243 240 214 198 216 199 220 218 215 219 216 219 221 226 233 238 241 241 240 241 230 235 235 231 227 225 228 206 204 219 221 226 220 219 224 223 220 218 217 222 211 220 224 220 214 207 208 214 212 208 221 213 201 196 198 193 189 189 187 192 194 187 185 185 189 186 186 185 185 181 181 184 189 188 184 190
214 235 90 170 241 203 204 208 214 209 238 213 252 249 248 242 308 263 258 258 223 227 230 227 221 230 232 231 229 228 230 233 232 229 226 226 231 232 237 227 222 222 224 225 222 226 234 239 233 225 220 222 225 221 223 221 221 220 218 220 223 209 224 228 227 224 223 215 209 211 215 219 230 208 196 194 194 194 187 186 193 194 191 185 185 186 185 188 186 180 183 182 182 190 188 182 185
61 226 251 253 249 247 200 227 198 203 233 180 234 261 251 122 163 277 172 276 231 218 226 214 214 233 233 232 235 232 232 233 226 229 229 220 221 220 227 215 213 221 216 220 217 217 219 228 235 236 230 225 221 223 224 225 222 223 220 220 219 219 223 228 231 234 227 225 226 219 217 222 223 240 225 199 194 197 190 186 193 191 192 187 185 185 187 188 190 186 182 183 182 188 188 182 182
141 229 234 237 227 225 217 209 199 160 246 193 231 266 248 158 193 248 139 133 130 177 203 205 213 230 234 233 233 235 231 236 230 217 226 216 216 211 209 204 211 213 209 215 214 211 213 218 225 231 233 227 222 225 225 227 223 221 223 224 224 225 213 226 236 240 241 237 229 229 226 225 223 227 221 216 207 198 195 190 194 193 190 183 189 184 184 188 185 188 184 179 176 181 181 178 180
28 283 284 240 255 257 195 220 206 176 241 151 172 274 238 168 222 240 123 139 142 148 172 190 209 221 231 234 231 231 229 227 216 219 226 226 223 211 209 203 202 201 213 215 211 207 210 210 218 224 227 230 225 225 226 224 222 221 220 220 225 213 225 232 236 238 243 244 240 235 236 230 226 222 225 213 209 208 202 198 196 195 189 188 186 183 176 172 179 179 173 182 183 176 178 173 173
213 214 283 303 276 266 174 122 109 174 210 150 171 274 245 191 219 240 136 179 210 234 235 222 225 222 229 235 241 244 233 222 221 222 223 224 224 219 218 206 208 212 213 212 212 216 208 207 208 216 220 224 225 226 226 223 219 218 218 220 219 219 233 236 239 243 240 245 243 241 239 244 235 228 222 225 215 208 205 201 199 193 193 185 179 181 173 170 175 173 177 177 181 171 169 162 155
249 146 176 254 278 254 108 149 140 190 140 172 194 253 265 212 208 233 107 150 209 239 242 234 226 232 232 234 239 243 243 225 227 222 219 217 219 222 223 215 211 218 220 219 211 213 208 206 199 211 214 221 222 223 221 221 217 219 217 217 217 216 223 233 242 240 236 233 239 240 241 247 242 242 243 230 225 221 215 206 199 188 188 171 176 175 163 166 178 180 174 180 164 166 157 154 157
228 260 240 190 220 237 111 136 170 209 120 195 183 253 261 266 253 105 123 154 191 235 250 242 235 241 239 237 239 244 246 230 230 230 222 213 212 219 216 225 221 222 217 218 217 206 212 211 202 208 213 218 219 219 218 217 217 216 219 219 225 214 230 234 235 236 236 235 231 235 234 238 247 243 230 242 242 231 224 214 206 199 180 172 184 171 160 173 178 176 176 170 165 158 153 152 158
208 219 255 189 200 269 327 153 253 357 118 212 213 245 80 219 35 62 107 140 171 237 262 263 246 245 249 241 236 238 244 234 233 232 221 216 217 215 218 226 222 222 220 219 214 202 210 211 207 210 211 211 214 212 212 212 211 208 212 213 218 218 227 231 233 235 232 229 226 228 226 230 237 241 242 232 232 241 239 225 213 200 188 177 181 170 171 169 168 167 172 174 166 156 152 151 148
202 190 238 249 222 173 231 91 226 218 215 202 228 256 243 292 265 166 168 158 166 262 272 265 256 250 244 239 237 245 250 243 226 221 208 210 226 223 226 224 225 223 222 217 215 208 205 203 203 206 210 209 209 207 205 206 209 211 210 216 216 223 224 230 231 225 228 228 225 225 220 217 225 233 240 244 238 236 241 240 233 209 189 183 181 175 176 167 162 162 171 170 168 157 150 152 149
195 175 224 242 241 232 251 227 125 185 218 256 236 241 256 257 274 268 254 204 240 259 265 273 273 265 257 247 240 239 241 242 241 233 186 195 213 229 228 221 218 217 211 208 209 207 206 201 197 198 205 201 201 199 196 201 204 211 217 218 218 221 224 226 227 229 229 225 225 227 224 222 223 228 232 234 240 230 234 243 235 225 208 190 181 177 173 167 165 170 171 168 164 163 155 153 150
205 181 214 225 225 221 223 223 116 203 211 228 231 244 247 244 252 262 261 260 268 267 257 259 259 258 256 249 243 242 238 243 244 189 165 192 206 216 215 211 209 207 201 197 202 204 207 206 196 195 199 195 189 188 185 194 199 204 209 209 221 220 221 219 217 227 226 228 230 233 241 250 253 251 246 242 239 236 233 231 244 232 212 201 185 178 167 171 172 163 165 164 153 145 149 125 119
29 215 226 232 236 248 73 60 111 196 262 247 241 250 261 254 254 261 266 266 261 259 256 253 254 255 249 245 242 240 238 240 216 168 180 192 206 209 206 204 207 203 203 198 201 207 206 203 192 199 190 183 180 179 184 186 190 199 211 216 221 214 216 218 222 221 224 227 215 213 227 241 253 264 265 264 258 246 235 233 236 242 217 210 198 183 175 173 171 163 157 159 153 148 133 128 133
277 223 225 239 217 249 103 138 109 215 250 275 137 279 269 250 255 256 260 260 257 242 237 246 248 244 245 242 248 244 242 236 177 186 178 188 206 203 196 199 197 198 204 194 204 204 201 200 203 200 182 185 190 186 182 191 197 197 197 205 213 223 223 223 233 225 226 217 213 223 231 235 238 249 257 258 257 255 246 230 231 240 243 222 202 189 177 172 169 158 150 140 145 143 144 149 150
224 240 246 257 235 175 144 108 136 165 172 274 5 288 278 269 251 254 239 240 252 240 216 230 236 240 239 240 242 246 242 237 208 214 199 199 205 208 199 202 201 209 195 194 202 198 195 198 207 200 190 184 191 190 189 196 198 202 204 206 206 226 226 254 260 260 226 221 221 226 237 241 242 241 245 253 255 247 247 245 234 233 241 245 238 203 177 172 168 157 156 152 128 123 136 157 162
234 227 239 237 199 156 249 128 136 207 225 304 347 311 287 284 239 238 231 227 242 238 220 240 238 243 241 239 239 245 250 244 230 214 209 206 206 203 204 198 197 191 196 194 194 200 197 202 201 196 187 187 190 193 198 198 193 192 206 228 232 248 248 184 241 240 234 226 226 227 235 242 241 245 249 249 245 245 244 246 231 223 223 235 229 211 196 167 163 160 157 156 142 141 153 179 183
224 229 233 243 166 118 292 52 187 306 263 17 296 286 284 271 269 229 229 230 253 264 233 233 239 247 251 257 256 245 253 252 243 227 215 207 205 209 202 194 177 190 196 199 191 193 190 199 197 190 186 190 193 185 189 188 169 187 203 226 249 258 247 242 243 240 225 222 226 223 228 234 244 252 255 249 246 247 244 243 237 225 212 219 222 212 186 181 167 162 162 158 159 148 155 162 184
229 220 224 236 93 158 106 87 340 270 270 164 253 303 268 277 168 210 224 336 237 252 241 248 236 232 231 242 249 252 246 241 241 239 226 212 212 199 189 180 183 196 200 202 191 193 192 195 191 185 189 191 190 183 181 180 187 194 190 201 211 219 233 218 222 225 215 211 212 216 229 238 249 253 249 247 242 242 246 242 237 223 220 210 205 217 214 181 170 168 165 161 164 160 153 160 167
232 238 203 221 240 152 186 199 143 253 257 87 211 226 280 267 238 169 204 216 250 234 220 243 231 220 212 229 242 241 234 228 217 226 218 204 200 186 185 185 191 195 204 179 179 193 194 193 184 182 190 188 184 177 177 178 187 201 205 210 218 225 234 234 225 223 227 224 210 203 222 236 244 252 253 248 247 243 241 238 230 223 222 211 181 196 223 204 177 166 168 168 164 158 158 158 160
239 66 143 200 204 209 208 213 212 245 31 278 198 263 267 297 285 165 188 255 267 273 263 255 246 241 226 226 236 233 228 209 197 207 208 209 201 192 186 187 188 197 182 163 179 186 191 190 178 181 188 185 172 174 177 185 190 195 202 213 223 232 237 247 235 233 234 238 226 214 236 242 233 233 238 242 247 249 243 235 226 213 215 204 171 178 210 211 197 177 165 162 159 163 163 161 159
228 36 167 180 194 211 206 210 225 261 340 267 199 182 275 264 264 98 133 242 248 249 253 264 258 248 233 228 230 233 226 213 202 199 201 196 198 194 188 187 190 178 166 178 186 182 179 179 179 182 186 179 169 174 178 187 200 199 203 210 223 231 241 248 251 244 236 222 235 239 236 243 244 235 232 236 239 248 245 234 223 213 207 206 176 169 186 214 201 174 163 163 164 165 180 164 155
101 108 89 79 72 70 160 203 211 171 230 249 211 173 234 269 271 201 153 236 251 238 237 241 240 242 238 232 246 245 230 211 207 211 203 197 196 194 193 167 164 184 167 172 161 157 168 169 180 180 184 179 168 174 183 188 199 208 210 215 223 231 232 239 238 242 234 227 235 243 248 250 253 245 235 234 229 234 236 226 210 207 205 197 176 175 171 209 202 183 171 166 164 169 177 174 167
127 124 100 91 90 111 68 80 191 170 232 249 168 185 197 272 275 240 185 225 208 218 221 236 258 291 283 269 257 253 226 203 197 203 204 194 183 184 174 191 195 163 153 165 163 173 168 175 177 181 183 172 168 180 186 192 196 207 215 216 223 233 237 243 246 240 238 237 236 240 243 245 249 255 253 245 226 220 228 220 206 205 192 174 167 174 177 185 208 193 176 166 168 168 175 179 175
146 141 137 115 92 128 146 157 203 215 246 264 163 181 197 220 280 270 181 94 205 232 246 251 259 245 287 282 272 249 230 210 196 197 194 183 171 181 176 197 192 181 159 173 178 177 173 175 178 179 176 177 175 182 190 194 193 207 219 222 228 233 235 237 240 249 243 243 247 254 255 252 249 244 240 237 230 206 208 200 194 183 190 170 160 165 191 174 192 204 184 175 174 171 171 173 168
196 146 159 179 177 153 196 167 209 208 231 36 359 38 189 241 242 239 84 287 231 214 228 244 261 296 311 312 314 273 245 205 196 197 192 182 183 179 187 193 184 184 187 181 177 173 173 178 185 180 179 181 181 184 194 194 199 206 211 222 232 238 243 241 242 250 244 243 252 259 268 262 260 255 246 229 223 209 188 198 191 180 179 167 158 160 167 186 175 197 196 177 172 174 177 170 165
179 175 178 184 173 180 217 189 278 308 239 191 181 269 294 281 279 267 260 254 257 253 209 245 245 258 283 336 336 326 246 216 206 202 201 187 183 181 182 182 184 186 187 175 170 173 176 183 185 188 178 177 178 184 191 194 202 205 212 222 228 236 245 244 236 238 225 230 247 255 261 260 263 256 254 246 221 203 181 179 178 180 173 166 164 161 153 174 183 188 191 182 177 182 181 177 176
189 188 187 187 178 173 210 187 202 197 180 112 241 159 220 182 227 15 289 324 313 300 277 223 227 253 264 284 291 280 273 229 204 204 202 192 186 179 179 181 182 185 179 171 168 177 174 183 183 188 173 174 180 186 187 194 195 202 215 223 227 235 243 245 237 222 211 225 235 253 260 263 265 270 271 249 211 191 170 168 169 170 170 169 162 159 154 153 179 183 194 189 175 173 189 178 175
193 190 333 252 217 221 250 46 215 131 140 143 191 217 227 219 337 304 238 239 255 246 258 234 234 227 229 258 258 254 250 249 192 206 199 198 186 181 180 182 184 180 179 170 176 174 179 186 187 189 181 173 179 183 188 193 195 196 212 222 228 236 243 250 247 225 230 222 230 241 260 270 278 286 292 226 176 173 166 164 162 169 165 161 163 160 155 152 158 173 181 181 171 183 192 190 170
177 170 212 200 43 97 110 72 69 49 348 238 165 252 263 285 283 263 262 258 243 220 223 222 234 220 210 238 230 216 229 229 200 208 195 191 188 192 191 186 182 180 177 181 182 182 184 177 181 184 177 172 181 184 186 189 192 199 211 221 228 233 238 238 235 235 236 234 244 255 274 291 300 303 297 153 160 153 160 157 161 168 168 165 162 165 159 156 156 161 173 188 191 184 189 178 174
115 236 206 68 261 336 204 230 120 218 233 236 166 210 248 228 273 91 208 233 241 222 221 206 216 209 217 223 222 207 199 212 208 205 205 196 194 195 198 198 190 185 180 181 184 182 187 183 181 178 175 183 186 181 182 183 188 200 207 218 226 232 238 239 238 236 239 241 244 264 299 309 317 317 207 153 145 145 150 155 161 166 167 167 167 162 162 163 158 160 173 182 191 186 191 185 173
246 203 155 162 173 202 211 228 217 174 218 229 210 218 249 226 242 243 212 181 228 229 212 176 239 214 223 227 229 222 201 186 200 201 197 199 195 197 195 195 193 188 184 183 172 170 181 187 187 186 186 187 177 176 174 176 186 189 204 212 220 228 233 238 231 231 238 241 250 268 317 314 319 342 337 141 159 156 148 146 147 151 152 155 155 159 159 159 164 159 158 167 173 173 181 195 192
252 290 224 220 325 237 186 196 356 200 236 204 241 163 240 213 231 241 246 198 170 102 197 218 227 216 206 216 211 201 201 195 193 197 196 195 195 198 197 191 188 189 185 178 170 168 187 190 185 197 184 159 164 175 176 181 183 187 195 202 215 223 229 226 219 214 228 242 257 273 318 352 325 355 52 140 148 160 157 159 165 167 165 163 160 161 162 161 160 163 160 165 170 172 173 171 174
185 197 208 190 224 340 4 251 200 198 210 222 244 241 223 243 199 231 245 246 232 232 205 214 223 219 213 213 205 199 199 197 195 195 195 190 192 195 198 197 186 171 161 159 174 185 188 182 193 193 191 189 190 186 183 187 171 185 187 197 201 208 214 213 204 204 209 222 251 275 287 69 317 21 48 119 161 162 162 160 160 162 163 160 160 160 161 158 162 162 167 167 166 174 179 178 174
186 187 198 190 183 189 178 228 203 215 198 212 202 241 253 263 168 209 227 236 228 227 224 223 255 288 252 222 218 210 199 202 194 195 197 194 194 190 187 177 163 168 181 186 185 180 187 193 201 190 194 200 196 190 194 183 180 174 184 188 195 198 198 195 192 190 193 201 223 259 179 162 112 349 77 105 81 97 152 156 157 162 163 162 163 164 163 161 165 167 168 173 171 177 183 180 177